Location: Borojevi?i
(45.0486°N, 16.2297°E)
Time: 01:58:09
(UTC+00:00)

ERS-1 Rocket - Pass Details

Date: 08 August 2020
Orbit: 753 x 757 km, 98.5° (Epoch: 25 September)

Event Time Altitude Azimuth Distance (km) Brightness Sun altitude
Exits shadow 19:56:09 27° 126° (SE) 1,439 3.8 -16.1°
Maximum altitude 19:58:31 45° 69° (ENE) 1,019 3.4 -16.4°
Drops below altitude 10° 20:03:18 10° 358° (N) 2,291 6.1 -17.1°
Sets 20:05:41 0° 352° (N) 3,220 7.1 -17.3°
